[[{"header":{"parameterUnit":"m.s-1","parameterCategory":1,"la1":30.2991,"la2":30.254,"lo1":-89.0895,"lo2":-89.0444,"dy":0.0017,"dx":0.0017,"nx":28,"ny":28,"refTime":"2024-07-19T09:00:00:Z","depth":0,"parameterNumber":2,"parameterNumberName":"U-component_of_WINDS"},"data":[0,0,0,0,0,0,0,0,0,0,0,0,0,0,0,0,0,0,0,0,0,0,0,0,0,0,0,0,0,0,0,0,0,0,0,0,0,0,0,0,0,0,0,0,0,0,0,0,0,0,0,0,0,0,0,0,0,0,0.8614,0.8614,0,0.8551,0.855,0.8549,0.846,0.8458,0.8457,0.8455,0.8392,0.8392,0.8391,0,0,0,0,0,0,0,0,0,0,0,0,0,0.866,0.866,0.8615,0.8614,0.8613,0.8551,0.855,0.8549,0.846,0.8458,0.8456,0.8455,0.8392,0.8392,0.8391,0,0,0,0,0,0,0,0,0,0,0,0,0,0.8623,0.8659,0.8615,0.8561,0.8555,0.8551,0.855,0.8549,0.846,0.8458,0.8456,0.8454,0.8392,0.8392,0.8391,0.8435,0,0,0.839,0.839,0,0,0,0,0,0,0,0,0.8625,0.8621,0.857,0.8565,0.8559,0.8511,0.8542,0.8511,0.8461,0.8497,0.8455,0.8453,0.8433,0.843,0.8423,0.8432,0.8429,0.839,0.839,0.839,0.839,0,0,0,0,0,0,0,0.8628,0.8623,0.8589,0.8569,0.8562,0.854,0.8532,0.8536,0.8479,0.8493,0.8487,0.848,0.843,0.8423,0.8421,0.8428,0.839,0.839,0.839,0.8389,0.8467,0.847,0,0,0,0,0,0,0.8638,0.8626,0.8591,0.8587,0.8587,0.8541,0.8533,0.8528,0.8478,0.8469,0.8482,0.8476,0.8425,0.8421,0.8418,0.8464,0.839,0.8389,0.8389,0.8465,0.8468,0.847,0,0,0,0,0,0,0.8639,0.8636,0.8594,0.8605,0.8598,0.8543,0.8539,0.8528,0.8521,0.847,0.8459,0.8486,0.8423,0.8419,0.8431,0.846,0.8389,0.8389,0.8462,0.8466,0.8469,0.8557,0,0,0,0,0,0,0.8641,0.8637,0.8653,0.8606,0.8598,0.8608,0.8541,0.8529,0.8521,0.8512,0.8471,0.8461,0.8421,0.8432,0.843,0.8458,0.8389,0.8459,0.8464,0.8468,0.8551,0.8563,0.8573,0,0,0,0,0,0.8643,0.8681,0.8654,0.865,0.8616,0.861,0.8605,0.8557,0.8524,0.8539,0.8506,0.8463,0.8458,0.8434,0.8431,0.846,0.8457,0.8463,0.8468,0.8546,0.8561,0.8573,0,0,0,0,0,0,0.8734,0.8674,0.8643,0.8667,0.8644,0.8595,0.8612,0.8574,0.856,0.8553,0.8495,0.8486,0.8505,0.8484,0.8458,0.8498,0.8451,0.8456,0.8511,0.8525,0.8535,0.854,0.8388,0,0,0,0,0,0.8756,0.8756,0.8703,0.873,0.8719,0.8668,0.8664,0.8628,0.8602,0.8592,0.856,0.8537,0.8529,0.8526,0.8517,0.8548,0.8537,0.8566,0.8577,0.8587,0.8591,0.8604,0.8616,0.8487,0.8487,0.8487,0,0,0.8803,0.8771,0.8774,0.8747,0.8725,0.8725,0.8661,0.8664,0.8664,0.8593,0.8602,0.8577,0.8547,0.8569,0.8576,0.8551,0.8624,0.8593,0.8601,0.86,0.8611,0.8623,0.8634,0.8491,0.849,0.849,0,0,0.8889,0.8865,0.8882,0.8861,0.8828,0.8794,0.8798,0.8754,0.8735,0.8742,0.8689,0.8688,0.8677,0.8657,0.8646,0.8722,0.8682,0.8721,0.8778,0.8792,0.8802,0.8811,0.8836,0.8847,0.8726,0.8726,0.8727,0,0.8952,0.8949,0.8897,0.8903,0.8892,0.8827,0.8845,0.8827,0.8793,0.8787,0.876,0.8743,0.8719,0.8734,0.8752,0.8746,0.8748,0.8725,0.8805,0.8813,0.882,0.8844,0.8854,0.8731,0.8731,0.873,0.873,0,0.9027,0.9027,0.9046,0.9013,0.9004,0.9017,0.8965,0.8963,0.8929,0.8897,0.8905,0.8873,0.8855,0.8856,0.8823,0.8866,0.8851,0.8815,0.8766,0.8838,0.886,0.8868,0.8738,0.8736,0.8735,0.8734,0,0,0.9168,0.9106,0.9113,0.9097,0.9055,0.9054,0.9062,0.9044,0.9042,0.9021,0.9026,0.9018,0.8983,0.8971,0.8935,0.8947,0.9007,0.8908,0.8907,0.8927,0.9051,0.9078,0.9089,0.8981,0.8982,0.8983,0.9053,0,0.9245,0.9255,0.9208,0.9231,0.9229,0.9167,0.9174,0.9149,0.912,0.9114,0.9081,0.9076,0.9031,0.9023,0.9032,0.8998,0.9031,0.8993,0.8984,0.8985,0.8993,0.9101,0.9129,0.9197,0.9061,0.9063,0.9064,0,0.9335,0.9317,0.934,0.9295,0.9293,0.93,0.9279,0.9274,0.9244,0.9222,0.9207,0.9165,0.917,0.9124,0.9129,0.9104,0.9098,0.908,0.9082,0.9079,0.9028,0.9099,0.9217,0.9227,0.9077,0.9076,0.9075,0,0.9434,0.9416,0.9426,0.9414,0.9363,0.937,0.9349,0.9316,0.9308,0.9289,0.9283,0.9266,0.9256,0.9244,0.9198,0.9169,0.9208,0.9159,0.9189,0.9191,0.92,0.92,0.9317,0.9198,0.9198,0.9198,0.9198,0,0.9523,0.9539,0.9469,0.9476,0.9492,0.9437,0.9454,0.9427,0.9399,0.9399,0.9344,0.9346,0.9285,0.928,0.9244,0.9253,0.925,0.9231,0.9221,0.9236,0.9238,0.923,0.9224,0.92,0.92,0.9199,0.9199,0,0.9636,0.959,0.9597,0.9548,0.9535,0.9549,0.9507,0.951,0.9477,0.9478,0.9475,0.9423,0.9413,0.9366,0.9346,0.9322,0.9343,0.9324,0.9353,0.9346,0.9379,0.9376,0.9495,0.9507,0.9382,0.9383,0.9384,0,0.9695,0.9706,0.9657,0.9653,0.9634,0.9628,0.9618,0.9565,0.9557,0.9523,0.9531,0.9517,0.9503,0.949,0.9451,0.9434,0.9414,0.9457,0.9411,0.9425,0.9413,0.9413,0.9413,0.9466,0.9468,0.9469,0.9471,0,0.9806,0.9782,0.977,0.975,0.974,0.9722,0.9701,0.9701,0.9641,0.9635,0.9624,0.9613,0.9592,0.9578,0.9555,0.9533,0.9492,0.9485,0.9491,0.9505,0.9521,0.9511,0.9378,0.9483,0.9481,0.948,0.948,0.9479,0.9892,0.9898,0.9864,0.9853,0.9831,0.9812,0.9812,0.9779,0.9769,0.9746,0.9715,0.9708,0.9677,0.9641,0.9623,0.9616,0.9593,0.9602,0.9604,0.9607,0.9613,0.9523,0.9612,0.9611,0.9611,0.9611,0.961,0,0.9998,0.9973,0.9963,0.9934,0.9925,0.9887,0.9861,0.9855,0.985,0.9824,0.981,0.9797,0.9783,0.9742,0.9724,0.9727,0.9707,0.9724,0.9722,0.9718,0.9636,0.9632,0.9739,0.9739,0.9739,0.9739,0.9739,0.9739,1.0052,1.0059,1.0032,1.0028,1.0002,0.9994,0.9983,0.9965,0.9943,0.9931,0.9919,0.9892,0.9859,0.9838,0.9824,0.9812,0.9807,0.983,0.9812,0.9736,0.9724,0.9712,0.9708,0.983,0.983,0.9894,0.9894,0.9895]},{"header":{"parameterUnit":"m.s-1","parameterCategory":1,"la1":30.2991,"la2":30.254,"lo1":-89.0895,"lo2":-89.0444,"dy":0.0017,"dx":0.0017,"nx":28,"ny":28,"refTime":"2024-07-19T09:00:00:Z","depth":0,"parameterNumber":3,"parameterNumberName":"V-component_of_WINDS"},"data":[0,0,0,0,0,0,0,0,0,0,0,0,0,0,0,0,0,0,0,0,0,0,0,0,0,0,0,0,0,0,0,0,0,0,0,0,0,0,0,0,0,0,0,0,0,0,0,0,0,0,0,0,0,0,0,0,0,0,4.0328,4.0328,0,4.0391,4.0392,4.0393,4.0338,4.0335,4.0333,4.0331,4.0392,4.0395,4.0399,0,0,0,0,0,0,0,0,0,0,0,0,0,4.0152,4.0155,4.0327,4.0328,4.0329,4.0391,4.0392,4.0393,4.0338,4.0335,4.0332,4.033,4.039,4.0395,4.0399,0,0,0,0,0,0,0,0,0,0,0,0,0,4.0223,4.0156,4.0327,4.0309,4.0308,4.0391,4.0392,4.0393,4.0339,4.0335,4.0332,4.0329,4.0389,4.0394,4.04,4.0503,0,0,4.0417,4.0419,0,0,0,0,0,0,0,0,4.0219,4.0229,4.0311,4.0311,4.031,4.0353,4.0352,4.043,4.0339,4.0327,4.0331,4.0327,4.0381,4.0387,4.0407,4.0505,4.0508,4.0418,4.0421,4.0423,4.0425,0,0,0,0,0,0,0,4.0214,4.0226,4.0353,4.0312,4.0311,4.0296,4.0302,4.0367,4.0372,4.0328,4.0324,4.0332,4.038,4.0401,4.0408,4.0509,4.0417,4.0422,4.0426,4.0428,4.0692,4.0695,0,0,0,0,0,0,4.0212,4.0223,4.0351,4.0354,4.0255,4.0302,4.0309,4.0343,4.0371,4.0373,4.0335,4.033,4.0393,4.0401,4.041,4.0529,4.0423,4.0429,4.0432,4.0688,4.0692,4.0696,0,0,0,0,0,0,4.0208,4.0224,4.0348,4.0288,4.0302,4.0309,4.0347,4.0346,4.0367,4.0377,4.0377,4.0356,4.0391,4.0402,4.0479,4.0531,4.0431,4.0436,4.0684,4.0689,4.0694,4.0771,0,0,0,0,0,0,4.0204,4.0223,4.0264,4.0289,4.0306,4.0419,4.035,4.0349,4.0377,4.037,4.0397,4.0398,4.0389,4.0471,4.0485,4.0537,4.0441,4.0679,4.0686,4.0693,4.0764,4.0778,4.0791,0,0,0,0,0,4.0197,4.0282,4.0266,4.0282,4.0357,4.0422,4.0431,4.0421,4.0382,4.0421,4.0427,4.0397,4.0523,4.048,4.0495,4.0549,4.0676,4.0684,4.0692,4.0758,4.0776,4.0791,0,0,0,0,0,0,4.0261,4.0285,4.0267,4.0363,4.0391,4.0413,4.0462,4.044,4.0479,4.0471,4.0454,4.0461,4.0542,4.0553,4.0505,4.0648,4.0593,4.0604,4.0638,4.0655,4.0668,4.0663,4.0445,0,0,0,0,0,4.0287,4.034,4.0357,4.044,4.0455,4.0456,4.0484,4.0474,4.0501,4.0512,4.0524,4.0551,4.0596,4.0626,4.0669,4.0766,4.0769,4.081,4.0823,4.0834,4.0844,4.0893,4.0911,4.0723,4.0723,4.0723,0,0,4.034,4.0359,4.0393,4.0453,4.0473,4.0526,4.0467,4.0525,4.0563,4.0521,4.0595,4.0605,4.0633,4.072,4.0759,4.0731,4.0897,4.0845,4.0854,4.0857,4.0904,4.0921,4.0937,4.0729,4.0728,4.0727,0,0,4.0462,4.0484,4.0554,4.0575,4.0607,4.0607,4.0624,4.0649,4.0654,4.0728,4.0697,4.0741,4.082,4.0841,4.0861,4.099,4.0963,4.1004,4.1074,4.1122,4.1137,4.115,4.1194,4.121,4.1014,4.1014,4.1015,0,4.0523,4.0603,4.0592,4.0653,4.0679,4.0644,4.0713,4.0734,4.0778,4.0795,4.0764,4.0861,4.0878,4.0968,4.1,4.1019,4.1035,4.1001,4.1136,4.1149,4.1161,4.1202,4.1219,4.1019,4.1019,4.1018,4.1018,0,4.0675,4.0731,4.0783,4.0827,4.0859,4.0924,4.092,4.0954,4.094,4.0943,4.1017,4.1036,4.1081,4.1102,4.1089,4.119,4.1171,4.1139,4.1083,4.1184,4.1222,4.1238,4.1026,4.1024,4.1023,4.1022,0,0,4.084,4.0876,4.0895,4.0914,4.0946,4.0987,4.1049,4.1094,4.1121,4.1152,4.1202,4.1269,4.1239,4.1263,4.1252,4.1294,4.1392,4.1256,4.1256,4.1279,4.1501,4.1524,4.1542,4.1375,4.1378,4.138,4.1498,0,4.0962,4.1071,4.1062,4.1165,4.1214,4.1181,4.1235,4.1259,4.1263,4.1304,4.1307,4.1354,4.1312,4.1326,4.1367,4.1372,4.1436,4.1363,4.1418,4.142,4.141,4.1563,4.1588,4.1698,4.1513,4.1515,4.1517,0,4.1119,4.1156,4.1264,4.1286,4.1306,4.1355,4.1394,4.1435,4.146,4.146,4.1486,4.1467,4.1527,4.1471,4.1551,4.1502,4.1524,4.1529,4.1533,4.1537,4.1474,4.1568,4.1733,4.1749,4.1541,4.1539,4.1538,0,4.1225,4.1302,4.1376,4.1393,4.1421,4.1456,4.1469,4.1491,4.1518,4.1551,4.1568,4.1608,4.1629,4.1659,4.1651,4.1611,4.1733,4.1676,4.1732,4.1732,4.1758,4.1756,4.1926,4.1775,4.1775,4.1775,4.1774,0,4.1362,4.1428,4.1424,4.1469,4.1541,4.153,4.1601,4.161,4.163,4.1674,4.1648,4.169,4.1677,4.1718,4.1711,4.1777,4.1788,4.1787,4.1784,4.1789,4.1789,4.1802,4.1793,4.1779,4.1778,4.1777,4.1777,0,4.1492,4.1492,4.157,4.1591,4.1597,4.165,4.1666,4.1707,4.1709,4.1765,4.1778,4.178,4.1826,4.1821,4.1873,4.1868,4.195,4.1939,4.1942,4.1938,4.1993,4.1987,4.2177,4.22,4.2036,4.2037,4.2039,0,4.1578,4.1629,4.1655,4.1683,4.1699,4.1745,4.1772,4.1762,4.1791,4.1823,4.1859,4.1904,4.1938,4.2013,4.2018,4.2057,4.2045,4.2109,4.2051,4.2053,4.2043,4.204,4.2043,4.212,4.2122,4.2123,4.2124,0,4.173,4.1727,4.1768,4.1809,4.1842,4.1873,4.1901,4.1926,4.1917,4.1951,4.1998,4.2025,4.2078,4.2121,4.2157,4.2168,4.2144,4.2143,4.2157,4.2161,4.216,4.2159,4.1971,4.2138,4.2137,4.2136,4.2135,4.2134,4.184,4.1882,4.1906,4.1952,4.1972,4.1999,4.2038,4.2045,4.2084,4.2127,4.2118,4.2171,4.2193,4.2239,4.2254,4.2294,4.227,4.2292,4.2297,4.2302,4.2307,4.2155,4.2301,4.23,4.23,4.23,4.2299,0,4.1988,4.2002,4.2044,4.2085,4.212,4.2096,4.2125,4.2155,4.2203,4.2226,4.2261,4.2314,4.2355,4.2363,4.2402,4.2432,4.2422,4.2442,4.2439,4.2442,4.2327,4.231,4.245,4.245,4.245,4.245,4.245,4.245,4.2069,4.2139,4.2139,4.2217,4.223,4.2283,4.2301,4.2324,4.2342,4.2404,4.2438,4.2444,4.246,4.2499,4.2535,4.2536,4.2551,4.2576,4.2572,4.2465,4.245,4.2435,4.2419,4.2579,4.258,4.2683,4.2684,4.2684]}]]